Hourly Data Report for October 29, 2016

All times are specified in Local Standard Time (LST). Add 1 hour to adjust for Daylight Saving Time where and when it is observed.

BAKER LAKE A
NUNAVUT

64°17'56.000" N
96°04'40.000" W
18.60 m
2300503
71926
YBK

Download Data

Hourly Data (October 2016)
Hourly Data Report for October 29, 2016
Temp Definition
°C
Dew Point Temp Definition
°C
Rel Hum Definition
%
Wind Dir Definition
10's deg

Wind Spd Definition
km/h
Visibility Definition
km
Stn Press Definition
kPa
Hmdx Definition


Wind Chill Definition


Weather Definition


TIME
00:00 Legend Double Dagger -15.1 -17.4 83 5 22 9.7 100.60   -25 Snow,Blowing Snow
01:00 Legend Double Dagger -16.9 -19.6 80 4 22 24.1 100.62   -27 Snow,Blowing Snow
02:00 Legend Double Dagger -17.8 -20.6 79 1 17 24.1 100.68   -27 Snow,Blowing Snow
03:00 Legend Double Dagger -18.0 -20.8 79 35 26 24.1 100.71   -29 Snow,Blowing Snow
04:00 Legend Double Dagger -19.2 -22.0 79 35 31 24.1 100.71   -32 Blowing Snow
05:00 Legend Double Dagger -21.6 -24.5 78 34 26 24.1 100.75   -34 Blowing Snow
06:00 Legend Double Dagger -19.5 -21.7 83 32 21 6.4 100.77   -30 Fog,Blowing Snow
07:00 Legend Double Dagger -18.8 -21.4 80 30 27 22.5 100.74   -30 Blowing Snow
08:00 Legend Double Dagger -17.4 -19.9 81 28 23 24.1 100.73   -28 LegendNANA
09:00 Legend Double Dagger -15.6 -18.2 81 26 29 1.2 100.60   -27 Snow,Blowing Snow
10:00 Legend Double Dagger -16.7 -19.2 81 25 30 4.0 100.53   -28 Snow,Blowing Snow
11:00 Legend Double Dagger -12.9 -15.2 83 29 35 4.0 100.47   -24 Snow,Blowing Snow
12:00 Legend Double Dagger -10.9 -13.1 84 31 40 1.2 100.44   -22 Snow,Blowing Snow
13:00 Legend Double Dagger -10.9 -13.4 82 33 37 16.1 100.46   -22 Snow,Blowing Snow
14:00 Legend Double Dagger -11.4 -13.9 82 33 42 6.4 100.50   -23 Snow,Blowing Snow
15:00 Legend Double Dagger -13.6 -16.4 80 33 39 24.1 100.56   -25 Blowing Snow
16:00 Legend Double Dagger -14.6 -17.3 80 31 35 32.2 100.63   -26 Blowing Snow
17:00 Legend Double Dagger -15.6 -18.2 81 30 41 24.1 100.61   -28 Blowing Snow
18:00 Legend Double Dagger -13.7 -16.1 82 29 34 16.1 100.54   -25 Blowing Snow
19:00 Legend Double Dagger -11.7 -13.9 84 28 46 1.2 100.33   -24 Snow,Blowing Snow
20:00 Legend Double Dagger -8.0 -9.5 89 30 57 0.4 100.07   -20 Snow,Blowing Snow
21:00 Legend Double Dagger -6.6 -7.8 91 31 58 0.4 99.97   -18 Snow,Blowing Snow
22:00 Legend Double Dagger -6.1 -7.3 91 32 63 0.4 99.98   -17 Snow,Blowing Snow
23:00 Legend Double Dagger -10.2 -12.4 84 36 43 24.1 100.24   -21 Snow,Blowing Snow

Notes on Data Quality.

Legend

  • E = Estimated
  • M = Missing
  • NA = Not Available
  • ‡ = Partner data that is not subject to review by the National Climate Archives
Date modified: